H1 CPF 2 NER 2025 9 28 9 271 01 glonass146 H2 2216101 9146 54377 2025 9 28 0 0 0 2025 10 1 23 45 0 900 1 1 0 0 0 1 H9 10 0 60946 0.00000 0 -10983533.301 -12300344.883 19486326.528 10 0 60946 900.00000 0 -8563235.159 -11686187.715 21015666.089 10 0 60946 1800.00000 0 -5943041.943 -11226798.410 22137695.023 10 0 60946 2700.00000 0 -3184759.759 -10951279.095 22830569.289 10 0 60946 3600.00000 0 -355387.970 -10877481.829 23080735.946 10 0 60946 4500.00000 0 2475414.737 -11011221.272 22883202.872 10 0 60946 5400.00000 0 5237975.882 -11346008.716 22241645.677 10 0 60946 6300.00000 0 7865258.038 -11863319.605 21168349.019 10 0 60946 7200.00000 0 10295402.149 -12533384.483 19683982.434 10 0 60946 8100.00000 0 12474060.444 -13316471.442 17817213.802 10 0 60946 9000.00000 0 14356422.354 -14164607.441 15604166.526 10 0 60946 9900.00000 0 15908849.026 -15023667.106 13087729.683 10 0 60946 10800.00000 0 17110048.098 -15835741.758 10316733.351 10 0 60946 11700.00000 0 17951739.262 -16541689.063 7345004.262 10 0 60946 12600.00000 0 18438782.428 -17083755.413 4230319.745 10 0 60946 13500.00000 0 18588762.947 -17408159.542 1033280.264 10 0 60946 14400.00000 0 18431051.423 -17467526.928 -2183877.030 10 0 60946 15300.00000 0 18005378.131 -17223070.559 -5358499.748 10 0 60946 16200.00000 0 17359982.945 -16646424.097 -8428751.770 10 0 60946 17100.00000 0 16549419.963 -15721048.245 -11334829.502 10 0 60946 18000.00000 0 15632110.881 -14443149.365 -14020137.799 10 0 60946 18900.00000 0 14667751.898 -12822070.187 -16432401.458 10 0 60946 19800.00000 0 13714685.030 -10880135.131 -18524689.669 10 0 60946 20700.00000 0 12827346.056 -8651956.089 -20256332.868 10 0 60946 21600.00000 0 12053897.654 -6183227.411 -21593713.893 10 0 60946 22500.00000 0 11434147.983 -3529060.495 -22510918.265 10 0 60946 23400.00000 0 10997842.491 -751927.626 -22990231.381 10 0 60946 24300.00000 0 10763400.458 2080699.003 -23022473.734 10 0 60946 25200.00000 0 10737148.708 4898914.744 -22607168.509 10 0 60946 26100.00000 0 10913083.684 7633049.666 -21752539.265 10 0 60946 27000.00000 0 11273170.737 10216324.975 -20475338.624 10 0 60946 27900.00000 0 11788166.817 12587388.951 -18800512.108 10 0 60946 28800.00000 0 12418930.855 14692627.952 -16760704.259 10 0 60946 29700.00000 0 13118165.734 16488157.708 -14395617.156 10 0 60946 30600.00000 0 13832517.806 17941413.538 -11751234.038 10 0 60946 31500.00000 0 14504945.064 19032274.962 -8878923.359 10 0 60946 32400.00000 0 15077253.977 19753679.592 -5834440.700 10 0 60946 33300.00000 0 15492698.084 20111702.494 -2676847.903 10 0 60946 34200.00000 0 15698528.971 20125099.390 532629.665 10 0 60946 35100.00000 0 15648392.351 19824334.349 3731785.726 10 0 60946 36000.00000 0 15304468.577 19250133.961 6858632.914 10 0 60946 36900.00000 0 14639267.598 18451629.555 9852596.858 10 0 60946 37800.00000 0 13637002.848 17484165.932 12655681.865 10 0 60946 38700.00000 0 12294486.107 16406868.794 15213586.221 10 0 60946 39600.00000 0 10621505.179 15280072.777 17476746.156 10 0 60946 40500.00000 0 8640667.716 14162717.627 19401289.016 10 0 60946 41400.00000 0 6386716.386 13109821.115 20949877.975 10 0 60946 42300.00000 0 3905342.470 12170134.033 22092432.598 10 0 60946 43200.00000 0 1251545.449 11384074.926 22806711.879 10 0 60946 44100.00000 0 -1512395.120 10782030.708 23078748.762 10 0 60946 45000.00000 0 -4319253.152 10383094.149 22903127.755 10 0 60946 45900.00000 0 -7099400.016 10194291.285 22283099.907 10 0 60946 46800.00000 0 -9783455.033 10210331.572 21230532.251 10 0 60946 47700.00000 0 -12304933.792 10413891.986 19765691.663 10 0 60946 48600.00000 0 -14602785.219 10776424.017 17916866.120 10 0 60946 49500.00000 0 -16623712.450 11259450.666 15719829.308 10 0 60946 50400.00000 0 -18324180.942 11816299.696 13217157.670 10 0 60946 51300.00000 0 -19672029.848 12394200.824 10457411.965 10 0 60946 52200.00000 0 -20647618.882 12936658.648 7494198.363 10 0 60946 53100.00000 0 -21244462.143 13386000.987 4385126.858 10 0 60946 54000.00000 0 -21469321.866 13685994.309 1190687.265 10 0 60946 54900.00000 0 -21341757.925 13784414.539 -2026934.929 10 0 60946 55800.00000 0 -20893151.985 13635462.919 -5205078.916 10 0 60946 56700.00000 0 -20165247.948 13201922.992 -8281840.184 10 0 60946 57600.00000 0 -19208271.079 12456965.802 -11197288.128 10 0 60946 58500.00000 0 -18078706.163 11385525.096 -13894644.497 10 0 60946 59400.00000 0 -16836829.737 9985182.945 -16321398.548 10 0 60946 60300.00000 0 -15544101.822 8266527.133 -18430336.220 10 0 60946 61200.00000 0 -14260528.345 6252964.295 -20180462.623 10 0 60946 62100.00000 0 -13042106.333 3979996.034 -21537799.694 10 0 60946 63000.00000 0 -11938459.994 1493987.983 -22476043.619 10 0 60946 63900.00000 0 -10990767.293 -1149516.781 -22977069.725 10 0 60946 64800.00000 0 -10230063.812 -3887869.567 -23031275.750 10 0 60946 65700.00000 0 -9675994.384 -6653686.749 -22637757.709 10 0 60946 66600.00000 0 -9336063.780 -9377420.637 -21804315.876 10 0 60946 67500.00000 0 -9205416.503 -11990023.809 -20547291.682 10 0 60946 68400.00000 0 -9267153.411 -14425596.616 -18891239.480 10 0 60946 69300.00000 0 -9493170.323 -16623908.446 -16868440.214 10 0 60946 70200.00000 0 -9845481.925 -18532688.906 -14518266.908 10 0 60946 71100.00000 0 -10277974.093 -20109594.768 -11886414.629 10 0 60946 72000.00000 0 -10738509.912 -21323772.164 -9024010.057 10 0 60946 72900.00000 0 -11171300.006 -22156950.407 -5986618.023 10 0 60946 73800.00000 0 -11519436.939 -22604023.384 -2833164.266 10 0 60946 74700.00000 0 -11727486.667 -22673095.723 375204.741 10 0 60946 75600.00000 0 -11744027.791 -22384993.242 3576302.961 10 0 60946 76500.00000 0 -11524031.731 -21772259.357 6708104.310 10 0 60946 77400.00000 0 -11030983.569 -20877680.413 9709937.563 10 0 60946 78300.00000 0 -10238654.340 -19752402.349 12523653.977 10 0 60946 79200.00000 0 -9132449.989 -18453717.845 15094745.593 10 0 60946 80100.00000 0 -7710279.902 -17042616.627 17373393.190 10 0 60946 81000.00000 0 -5982907.797 -15581201.146 19315424.386 10 0 60946 81900.00000 0 -3973769.075 -14130075.223 20883164.092 10 0 60946 82800.00000 0 -1718260.800 -12745814.225 22046161.546 10 0 60946 83700.00000 0 737467.898 -11478621.830 22781780.402 10 0 60946 84600.00000 0 3338176.657 -10370270.666 23075640.798 10 0 60946 85500.00000 0 6021578.942 -9452412.464 22921904.840 10 0 60947 0.00000 0 8720688.159 -8745328.169 22323399.721 10 0 60947 900.00000 0 11366370.694 -8257169.984 21291575.032 10 0 60947 1800.00000 0 13889997.756 -7983728.276 19846294.979 10 0 60947 2700.00000 0 16226091.761 -7908732.364 18015467.253 10 0 60947 3600.00000 0 18314854.282 -8004674.167 15834515.080 10 0 60947 4500.00000 0 20104471.903 -8234120.334 13345701.142 10 0 60947 5400.00000 0 21553103.333 -8551458.153 10597315.347 10 0 60947 6300.00000 0 22630464.295 -8905001.894 7642741.337 10 0 60947 7200.00000 0 23318943.105 -9239370.537 4539419.400 10 0 60947 8100.00000 0 23614199.424 -9498035.799 1347725.947 10 0 60947 9000.00000 0 23525220.545 -9625931.761 -1870208.262 10 0 60947 9900.00000 0 23073832.376 -9572014.174 -5051717.252 10 0 60947 10800.00000 0 22293685.804 -9291659.450 -8134831.461 10 0 60947 11700.00000 0 21228761.580 -8748799.991 -11059496.570 10 0 60947 12600.00000 0 19931457.491 -7917703.717 -13768754.401 10 0 60947 13500.00000 0 18460339.503 -6784320.864 -16209861.650 10 0 60947 14400.00000 0 16877652.693 -5347139.682 -18335323.729 10 0 60947 15300.00000 0 15246698.039 -3617513.811 -20103822.879 10 0 60947 16200.00000 0 13629186.381 -1619446.693 -21481022.271 10 0 60947 17100.00000 0 12082681.442 611158.486 -22440230.564 10 0 60947 18000.00000 0 10658239.600 3027752.210 -22962914.456 10 0 60947 18900.00000 0 9398345.189 5574843.080 -23039049.973 10 0 60947 19800.00000 0 8335227.220 8190082.225 -22667306.590 10 0 60947 20700.00000 0 7489626.947 10806640.751 -21855061.504 10 0 60947 21600.00000 0 6870066.423 13355781.375 -20618244.729 10 0 60947 22500.00000 0 6472646.969 15769517.494 -18981018.801 10 0 60947 23400.00000 0 6281384.170 17983249.490 -16975299.983 10 0 60947 24300.00000 0 6269063.535 19938269.265 -14640130.766 10 0 60947 25200.00000 0 6398579.198 21584029.644 -12020916.150 10 0 60947 26100.00000 0 6624697.961 22880085.164 -9168538.756 10 0 60947 27000.00000 0 6896173.308 23797624.546 -6138370.028 10 0 60947 27900.00000 0 7158119.541 24320532.197 -2989196.664 10 0 60947 28800.00000 0 7354545.483 24445935.690 217916.927 10 0 60947 29700.00000 0 7430940.656 24184217.562 3420808.264 10 0 60947 30600.00000 0 7336804.855 23558492.006 6557415.890 10 0 60947 31500.00000 0 7028014.481 22603569.212 9566975.023 10 0 60947 32400.00000 0 6468925.984 21364451.271 12391187.021 10 0 60947 33300.00000 0 5634127.730 19894422.859 14975340.620 10 0 60947 34200.00000 0 4509766.358 18252816.516 17269363.843 10 0 60947 35100.00000 0 3094391.275 16502545.624 19228786.984 10 0 60947 36000.00000 0 1399280.925 14707507.567 20815598.781 10 0 60947 36900.00000 0 -551764.179 12929964.779 21998979.883 10 0 60947 37800.00000 0 -2723154.696 11228012.139 22755899.974 10 0 60947 38700.00000 0 -5068743.373 9653235.528 23071567.337 10 0 60947 39600.00000 0 -7533504.460 8248658.533 22939722.166 10 0 60947 40500.00000 0 -10055593.873 7047062.418 22362767.647 10 0 60947 41400.00000 0 -12568706.472 6069749.179 21351735.610 10 0 60947 42300.00000 0 -15004634.128 5325799.313 19926086.446 10 0 60947 43200.00000 0 -17295919.538 4811855.508 18113345.954 10 0 60947 44100.00000 0 -19378496.214 4512441.633 15948584.806 10 0 60947 45000.00000 0 -21194204.952 4400804.001 13473749.413 10 0 60947 45900.00000 0 -22693081.663 4440239.880 10736856.007 10 0 60947 46800.00000 0 -23835320.433 4585857.432 7791062.659 10 0 60947 47700.00000 0 -24592828.716 4786692.680 4693636.804 10 0 60947 48600.00000 0 -24950308.704 4988093.626 1504838.289 10 0 60947 49500.00000 0 -24905818.376 5134269.760 -1713259.947 10 0 60947 50400.00000 0 -24470787.872 5170897.733 -4897989.763 10 0 60947 51300.00000 0 -23669490.259 5047671.321 -7987319.416 10 0 60947 52200.00000 0 -22537988.829 4720685.913 -10921073.588 10 0 60947 53100.00000 0 -21122605.739 4154554.762 -13642116.690 10 0 60947 54000.00000 0 -19477977.096 3324165.700 -16097475.147 10 0 60947 54900.00000 0 -17664777.330 2216002.517 -18239375.834 10 0 60947 55800.00000 0 -15747209.606 828973.943 -20026179.754 10 0 60947 56700.00000 0 -13790368.671 -825285.700 -21423192.530 10 0 60947 57600.00000 0 -11857587.568 -2722657.501 -22403336.068 10 0 60947 58500.00000 0 -10007879.873 -4827310.931 -22947668.740 10 0 60947 59400.00000 0 -8293584.501 -7092976.606 -23045744.737 10 0 60947 60300.00000 0 -6758311.132 -9464665.688 -22695806.449 10 0 60947 61200.00000 0 -5435271.171 -11880764.138 -21904807.084 10 0 60947 62100.00000 0 -4346062.604 -14275414.490 -20688264.010 10 0 60947 63000.00000 0 -3499957.800 -16581086.041 -19069946.446 10 0 60947 63900.00000 0 -2893722.065 -18731226.592 -17081404.274 10 0 60947 64800.00000 0 -2511968.504 -20662885.746 -14761347.586 10 0 60947 65700.00000 0 -2328032.294 -22319201.054 -12154889.352 10 0 60947 66600.00000 0 -2305325.844 -23651644.125 -9312666.131 10 0 60947 67500.00000 0 -2399116.329 -24621933.916 -6289853.954 10 0 60947 68400.00000 0 -2558649.594 -25203538.331 -3145098.465 10 0 60947 69300.00000 0 -2729530.073 -25382702.407 60619.990 10 0 60947 70200.00000 0 -2856255.897 -25158961.107 3265164.468 10 0 60947 71100.00000 0 -2884801.992 -24545116.142 6406440.152 10 0 60947 72000.00000 0 -2765142.200 -23566678.510 9423590.728 10 0 60947 72900.00000 0 -2453604.106 -22260800.533 12258169.710 10 0 60947 73800.00000 0 -1914957.349 -20674742.247 14855264.586 10 0 60947 74700.00000 0 -1124147.391 -18863936.154 17164552.645 10 0 60947 75600.00000 0 -67601.492 -16889730.775 19141268.783 10 0 60947 76500.00000 0 1255948.684 -14816906.511 20747067.344 10 0 60947 77400.00000 0 2835163.345 -12711066.603 21950761.961 10 0 60947 78300.00000 0 4646323.921 -10636010.920 22728929.667 10 0 60947 79200.00000 0 6654087.694 -8651200.978 23066367.929 10 0 60947 80100.00000 0 8812738.234 -6809420.835 22956395.774 10 0 60947 81000.00000 0 11067881.636 -5154730.498 22400992.901 10 0 60947 81900.00000 0 13358520.032 -3720796.501 21410773.434 10 0 60947 82800.00000 0 15619417.852 -2529668.963 20004793.857 10 0 60947 83700.00000 0 17783663.840 -1591056.055 18210197.674 10 0 60947 84600.00000 0 19785323.140 -902126.266 16061702.308 10 0 60947 85500.00000 0 21562069.326 -447846.934 13600936.903 10 0 60948 0.00000 0 23057686.379 -201845.015 10875642.936 10 0 60948 900.00000 0 24224336.186 -127753.844 7938750.734 10 0 60948 1800.00000 0 25024493.859 -180989.256 4847353.078 10 0 60948 2700.00000 0 25432471.213 -310879.246 1661590.882 10 0 60948 3600.00000 0 25435461.186 -463056.679 -1556523.412 10 0 60948 4500.00000 0 25034059.109 -582012.502 -4744322.374 10 0 60948 5400.00000 0 24242237.799 -613699.889 -7839715.063 10 0 60948 6300.00000 0 23086777.133 -508077.321 -10782408.165 10 0 60948 7200.00000 0 21606172.125 -221481.185 -13515091.596 10 0 60948 8100.00000 0 19849065.644 281274.323 -15984564.262 10 0 60948 9000.00000 0 17872272.342 1025160.403 -18142777.058 10 0 60948 9900.00000 0 15738477.649 2023634.666 -19947772.088 10 0 60948 10800.00000 0 13513709.263 3277835.830 -21364499.531 10 0 60948 11700.00000 0 11264687.867 4776306.757 -22365496.403 10 0 60948 12600.00000 0 9056168.493 6495257.924 -22931414.360 10 0 60948 13500.00000 0 6948383.837 8399360.510 -23051387.064 10 0 60948 14400.00000 0 4994695.964 10443035.920 -22723230.789 10 0 60948 15300.00000 0 3239553.685 12572187.724 -21953475.350 10 0 60948 16200.00000 0 1716839.541 14726303.613 -20757225.640 10 0 60948 17100.00000 0 448673.729 16840839.565 -19157857.301 10 0 60948 18000.00000 0 -555277.060 18849786.828 -17186553.116 10 0 60948 18900.00000 0 -1297959.158 20688314.806 -14881689.605 10 0 60948 19800.00000 0 -1794555.319 22295379.973 -12288086.099 10 0 60948 20700.00000 0 -2071589.885 23616192.389 -9456131.054 10 0 60948 21600.00000 0 -2165555.151 24604437.474 -6440802.674 10 0 60948 22500.00000 0 -2121118.254 25224160.919 -3300602.788 10 0 60948 23400.00000 0 -1988985.252 25451238.712 -96424.655 10 0 60948 24300.00000 0 -1823513.229 25274371.524 3109623.550 10 0 60948 25200.00000 0 -1680171.567 24695562.570 6255416.974 10 0 60948 26100.00000 0 -1612959.665 23730059.424 9280011.122 10 0 60948 27000.00000 0 -1671890.002 22405762.610 12124814.951 10 0 60948 27900.00000 0 -1900642.561 20762125.703 14734717.856 10 0 60948 28800.00000 0 -2334489.399 18848592.732 17059149.348 10 0 60948 29700.00000 0 -2998576.782 16722637.619 19053051.646 10 0 60948 30600.00000 0 -3906637.510 14447486.650 20677747.128 10 0 60948 31500.00000 0 -5060188.178 12089617.929 21901684.509 10 0 60948 32400.00000 0 -6448246.139 9716140.820 22701049.891 10 0 60948 33300.00000 0 -8047579.481 7392163.206 23060231.215 10 0 60948 34200.00000 0 -9823481.372 5178254.968 22972127.150 10 0 60948 35100.00000 0 -11731038.392 3128112.142 22438294.180 10 0 60948 36000.00000 0 -13716841.994 1286518.111 21468928.425 10 0 60948 36900.00000 0 -15721073.598 -312313.863 20082681.576 10 0 60948 37800.00000 0 -17679878.019 -1645948.018 18306313.366 10 0 60948 38700.00000 0 -19527927.414 -2704433.138 16174185.941 10 0 60948 39600.00000 0 -21201069.401 -3490479.662 13727608.661 10 0 60948 40500.00000 0 -22638948.817 -4019099.375 11014044.823 10 0 60948 41400.00000 0 -23787492.970 -4316722.787 8086194.791 10 0 60948 42300.00000 0 -24601155.419 -4419831.493 5000972.838 10 0 60948 43200.00000 0 -25044822.971 -4373163.562 1818397.471 10 0 60948 44100.00000 0 -25095304.371 -4227568.427 -1399582.801 10 0 60948 45000.00000 0 -24742336.623 -4037603.001 -4590304.625 10 0 60948 45900.00000 0 -23989065.418 -3858972.167 -7691621.101 10 0 60948 46800.00000 0 -22851978.632 -3745923.542 -10643123.971 10 0 60948 47700.00000 0 -21360295.046 -3748708.588 -13387331.493 10 0 60948 48600.00000 0 -19554833.942 -3911219.256 -15870817.624 10 0 60948 49500.00000 0 -17486413.297 -4268901.704 -18045259.503 10 0 60948 50400.00000 0 -15213844.351 -4847036.704 -19868382.131 10 0 60948 51300.00000 0 -12801607.342 -5659460.342 -21304781.565 10 0 60948 52200.00000 0 -10317306.401 -6707779.724 -22326610.690 10 0 60948 53100.00000 0 -7829010.582 -7981117.116 -22914114.652 10 0 60948 54000.00000 0 -5402592.302 -9456393.449 -23056006.230 10 0 60948 54900.00000 0 -3099174.079 -11099139.242 -22749674.734 10 0 60948 55800.00000 0 -972789.438 -12864798.816 -22001225.291 10 0 60948 56700.00000 0 931645.626 -14700472.953 -20825348.681 10 0 60948 57600.00000 0 2579967.555 -16547026.947 -19245025.050 10 0 60948 58500.00000 0 3949940.201 -18341475.778 -17291067.950 10 0 60948 59400.00000 0 5031922.921 -20019546.700 -15001518.070 10 0 60948 60300.00000 0 5829006.156 -21518312.313 -12420898.737 10 0 60948 61200.00000 0 6356610.995 -22778784.255 -9599347.907 10 0 60948 62100.00000 0 6641571.662 -23748359.486 -6591643.537 10 0 60948 63000.00000 0 6720741.243 -24383017.275 -3456141.259 10 0 60948 63900.00000 0 6639180.798 -24649175.499 -253644.894 10 0 60948 64800.00000 0 6448009.188 -24525129.070 2953768.430 10 0 60948 65700.00000 0 6202004.963 -24002010.742 6103946.030 10 0 60948 66600.00000 0 5957061.774 -23084234.422 9135857.345 10 0 60948 67500.00000 0 5767604.690 -21789402.625 11990768.777 10 0 60948 68400.00000 0 5684076.250 -20147681.850 14613373.504 10 0 60948 69300.00000 0 5750598.012 -18200671.653 16952854.967 10 0 60948 70200.00000 0 6002905.922 -15999814.049 18963864.218 10 0 60948 71100.00000 0 6466646.425 -13604408.618 20607392.935 10 0 60948 72000.00000 0 7156105.197 -11079314.958 21851525.916 10 0 60948 72900.00000 0 8073422.566 -8492436.767 22672059.038 10 0 60948 73800.00000 0 9208329.535 -5912090.822 23052971.121 10 0 60948 74700.00000 0 10538416.882 -3404368.853 22986740.581 10 0 60948 75600.00000 0 12029927.763 -1030600.692 22474500.529 10 0 60948 76500.00000 0 13639042.561 1154976.953 21526028.662 10 0 60948 77400.00000 0 15313604.114 3107249.916 20159571.243 10 0 60948 78300.00000 0 16995212.927 4791870.268 18401503.394 10 0 60948 79200.00000 0 18621606.170 6186446.068 16285830.958 10 0 60948 80100.00000 0 20129221.843 7281227.547 13853542.287 10 0 60948 81000.00000 0 21455841.082 8079260.989 11151821.331 10 0 60948 81900.00000 0 22543197.746 8596003.877 8233136.362 10 0 60948 82800.00000 0 23339445.029 8858417.516 5154221.515 10 0 60948 83700.00000 0 23801374.260 8903575.620 1974970.824 10 0 60948 84600.00000 0 23896291.317 8776848.155 -1242733.405 10 0 60948 85500.00000 0 23603469.907 8529737.995 -4436234.291 10 0 60949 0.00000 0 22915119.159 8217463.132 -7543331.164 10 0 60949 900.00000 0 21836823.091 7896388.060 -10503503.844 10 0 60949 1800.00000 0 20387433.475 7621415.095 -13259101.036 10 0 60949 2700.00000 0 18598418.819 7443447.108 -15756473.994 10 0 60949 3600.00000 0 16512697.374 7407031.009 -17947028.201 10 0 60949 4500.00000 0 14183003.076 7548282.795 -19788173.499 10 0 60949 5400.00000 0 11669853.350 7893182.856 -21244153.604 10 0 60949 6300.00000 0 9039204.315 8456314.196 -22286738.917 10 0 60949 7200.00000 0 6359891.896 9240097.063 -22895769.548 10 0 60949 8100.00000 0 3700965.899 10234552.268 -23059538.679 10 0 60949 9000.00000 0 1129028.166 11417602.958 -22775009.693 10 0 60949 9900.00000 0 -1294314.698 12755901.826 -22047863.754 10 0 60949 10800.00000 0 -3514778.800 14206148.625 -20892377.879 10 0 60949 11700.00000 0 -5487415.047 15716842.389 -19331136.648 10 0 60949 12600.00000 0 -7178223.640 17230394.596 -17394583.882 10 0 60949 13500.00000 0 -8565305.662 18685514.533 -15120423.484 10 0 60949 14400.00000 0 -9639505.875 20019766.906 -12552881.414 10 0 60949 15300.00000 0 -10404522.059 21172194.609 -9741843.374 10 0 60949 16200.00000 0 -10876478.512 22085896.949 -6741884.982 10 0 60949 17100.00000 0 -11082983.575 22710455.601 -3611213.272 10 0 60949 18000.00000 0 -11061712.481 23004106.938 -410539.988 10 0 60949 18900.00000 0 -10858576.449 22935570.037 2798091.636 10 0 60949 19800.00000 0 -10525556.091 22485454.051 5952504.080 10 0 60949 20700.00000 0 -10118290.936 21647186.190 8991583.801 10 0 60949 21600.00000 0 -9693526.911 20427421.453 11856457.778 10 0 60949 22500.00000 0 -9306529.259 18845916.812 14491626.063 10 0 60949 23400.00000 0 -9008569.665 16934874.644 16846029.045 10 0 60949 24300.00000 0 -8844593.092 14737782.107 18874029.464 10 0 60949 25200.00000 0 -8851162.244 12307793.848 20536290.954 10 0 60949 26100.00000 0 -9054766.015 9705724.182 21800536.758 10 0 60949 27000.00000 0 -9470563.158 6997730.852 22642174.549 10 0 60949 27900.00000 0 -10101614.479 4252785.057 23044775.637 10 0 60949 28800.00000 0 -10938636.663 1540031.375 23000399.328 10 0 60949 29700.00000 0 -11960289.303 -1073854.291 22509755.962 10 0 60949 30600.00000 0 -13133984.662 -3527200.290 21582204.859 10 0 60949 31500.00000 0 -14417187.898 -5765663.957 20235586.296 10 0 60949 32400.00000 0 -15759154.904 -7744249.553 18495889.636 10 0 60949 33300.00000 0 -17103036.437 -9428935.815 16396762.702 10 0 60949 34200.00000 0 -18388261.358 -10797845.375 13978870.613 10 0 60949 35100.00000 0 -19553099.635 -11841907.179 11289115.305 10 0 60949 36000.00000 0 -20537297.509 -12564984.099 8379729.949 10 0 60949 36900.00000 0 -21284673.523 -12983460.293 5307265.282 10 0 60949 37800.00000 0 -21745565.325 -13125305.916 2131487.459 10 0 60949 38700.00000 0 -21879022.697 -13028658.826 -1085790.888 10 0 60949 39600.00000 0 -21654652.709 -12739983.852 -4281922.832 10 0 60949 40500.00000 0 -21054037.655 -12311888.436 -7394657.899 10 0 60949 41400.00000 0 -20071664.336 -11800688.264 -10363366.175 10 0 60949 42300.00000 0 -18715324.253 -11263827.406 -13130230.517 10 0 60949 43200.00000 0 -17005966.822 -10757263.588 -15641382.394 10 0 60949 44100.00000 0 -14977011.135 -10332930.758 -17847958.228 10 0 60949 45000.00000 0 -12673144.957 -10036387.469 -19707054.892 10 0 60949 45900.00000 0 -10148661.353 -9904751.466 -21182565.453 10 0 60949 46800.00000 0 -7465402.822 -9965008.266 -22245878.949 10 0 60949 47700.00000 0 -4690399.202 -10232765.343 -22876430.968 10 0 60949 48600.00000 0 -1893298.135 -10711504.277 -23062095.004 10 0 60949 49500.00000 0 856304.778 -11392361.982 -22799407.849 10 0 60949 50400.00000 0 3491525.206 -12254449.621 -22093625.551 10 0 60949 51300.00000 0 5950728.677 -13265695.156 -20958609.788 10 0 60949 52200.00000 0 8179843.929 -14384173.432 -19416547.666 10 0 60949 53100.00000 0 10134356.123 -15559867.383 -17497511.095 10 0 60949 54000.00000 0 11780898.611 -16736785.923 -15238864.794 10 0 60949 54900.00000 0 13098378.908 -17855349.326 -12684534.769 10 0 60949 55800.00000 0 14078593.910 -18854941.815 -9884151.727 10 0 60949 56700.00000 0 14726310.796 -19676524.163 -6892086.087 10 0 60949 57600.00000 0 15058812.241 -20265196.790 -3766393.354 10 0 60949 58500.00000 0 15104926.828 -20572605.884 -567690.226 10 0 60949 59400.00000 0 14903586.898 -20559091.782 2642016.871 10 0 60949 60300.00000 0 14501975.622 -20195489.626 5800528.389 10 0 60949 61200.00000 0 13953342.035 -19464506.828 8846650.433 10 0 60949 62100.00000 0 13314576.379 -18361619.574 11721372.936 10 0 60949 63000.00000 0 12643647.899 -16895450.491 14369004.918 10 0 60949 63900.00000 0 11997012.722 -15087611.214 16738245.466 10 0 60949 64800.00000 0 11427100.491 -12972015.562 18783170.406 10 0 60949 65700.00000 0 10979985.031 -10593690.918 20464116.338 10 0 60949 66600.00000 0 10693336.524 -8007135.967 21748445.585 10 0 60949 67500.00000 0 10594741.034 -5274291.576 22611177.877 10 0 60949 68400.00000 0 10700457.963 -2462207.446 23035476.893 10 0 60949 69300.00000 0 11014667.969 359500.252 23012982.376 10 0 60949 70200.00000 0 11529243.649 3121296.375 22543981.137 10 0 60949 71100.00000 0 12224053.671 5756371.024 21637413.085 10 0 60949 72000.00000 0 13067788.887 8203171.856 20310711.260 10 0 60949 72900.00000 0 14019277.178 10407720.131 18589477.832 10 0 60949 73800.00000 0 15029233.195 12325614.722 16507001.016 10 0 60949 74700.00000 0 16042370.614 13923640.711 14103620.978 10 0 60949 75600.00000 0 16999788.878 15180915.484 11425955.807 10 0 60949 76500.00000 0 17841534.278 16089524.156 8526001.617 10 0 60949 77400.00000 0 18509227.241 16654617.530 5460123.701 10 0 60949 78300.00000 0 18948644.361 16893968.414 2287958.182 10 0 60949 79200.00000 0 19112144.972 16837005.081 -928754.197 10 0 60949 80100.00000 0 18960838.377 16523363.056 -4127378.686 10 0 60949 81000.00000 0 18466398.327 16001017.033 -7245616.922 10 0 60949 81900.00000 0 17612446.494 15324072.979 -10222731.922 10 0 60949 82800.00000 0 16395445.113 14550315.110 -13000742.374 10 0 60949 83700.00000 0 14825059.662 13738612.748 -15525561.762 10 0 60949 84600.00000 0 12923975.319 12946298.169 -17748059.076 10 0 60949 85500.00000 0 10727174.295 12226627.464 -19625019.686 99